Weather History for Salem, OR

Change the Weather History Date:

Thursday, August 8, 2013

  Actual Average Record
Temperature  
Mean Temperature 71 °F 68 °F  
Max Temperature 85 °F 83 °F 106 °F (1978)
Min Temperature 56 °F 54 °F 40 °F (1970)
Degree Days  
Heating Degree Days 0 1  
Month to date heating degree days 2 5  
Since 1 June heating degree days 83 165  
Since 1 July heating degree days 4 35  
Cooling Degree Days 6 4  
Month to date cooling degree days 51 32  
Year to date cooling degree days 290 178  
Since 1 June cooling degree days 280 169  
Growing Degree Days 20 (Base 50)    
Moisture  
Dew Point 55 °F    
Average Humidity 62    
Maximum Humidity 86    
Minimum Humidity 37    
Precipitation  
Precipitation 0.00 in 0.01 in 0.24 in (1912)
Month to date precipitation T 0.06  
Year to date precipitation 11.61 21.61  
Snow  
Snow 0.00 in - - ()
Month to date snowfall 0.0  
Since 1 June snowfall 0.0  
Since 1 July snowfall 0.0  
Snow Depth 0.00 in    
Sea Level Pressure  
Sea Level Pressure 29.98 in    
Wind  
Wind Speed 6 mph (North)    
Max Wind Speed 15 mph    
Max Gust Speed 21 mph    
Visibility 10 miles    
Events      
T = Trace of Precipitation, MM = Missing Value Source: NWS Daily Summary

Daily Weather History Graph

Daily Weather History Graph

Search for Another Location

Airport:

Trip Planner

Search our weather history database for the weather conditions in past years. The results will help you decide how hot, cold, wet, or windy it might be!

Date:

Astronomy

Aug. 08, 2013 Rise Set
Actual Time 6:06 AM PDT 8:28 PM PDT
Civil Twilight 5:33 AM PDT 9:00 PM PDT
Nautical Twilight 4:52 AM PDT 9:41 PM PDT
Astronomical Twilight 4:06 AM PDT 10:26 PM PDT
Moon 8:06 AM PDT (8/8) 9:00 PM PDT (8/8)
Length of Visible Light 15h 27m
Length of Day
14h 22m
Waxing Crescent, 3% of the Moon is Illuminated
Aug 8
Waxing Crescent
Aug 14
First Quarter
Aug 20
Full
Aug 28
Last Quarter
Sep 5
New

Hourly Weather History & Observations

Time (PDT) Temp. Heat Index Dew Point Humidity Pressure Visibility Wind Dir Wind Speed Gust Speed Precip Events Conditions
12:56 AM 59.0 °F - 53.1 °F 81% 30.04 in 10.0 mi SSE 3.5 mph - N/A   Clear
1:56 AM 57.9 °F - 53.1 °F 84% 30.03 in 10.0 mi Calm Calm - N/A   Clear
2:56 AM 57.0 °F - 52.0 °F 83% 30.04 in 10.0 mi SSE 6.9 mph - N/A   Clear
3:56 AM 57.0 °F - 52.0 °F 83% 30.05 in 10.0 mi Calm Calm - N/A   Clear
4:56 AM 57.0 °F - 53.1 °F 87% 30.04 in 10.0 mi SSW 3.5 mph - N/A   Clear
5:56 AM 55.9 °F - 52.0 °F 87% 30.04 in 10.0 mi SE 4.6 mph - N/A   Clear
6:51 AM 55.4 °F - 53.6 °F 94% 30.06 in 10.0 mi South 5.8 mph - N/A   Mostly Cloudy
6:56 AM 57.0 °F - 53.1 °F 87% 30.05 in 10.0 mi South 5.8 mph - N/A   Mostly Cloudy
7:56 AM 57.0 °F - 53.1 °F 87% 30.06 in 10.0 mi SSW 5.8 mph - N/A   Mostly Cloudy
8:56 AM 60.1 °F - 53.1 °F 78% 30.05 in 10.0 mi SSE 5.8 mph - N/A   Scattered Clouds
9:56 AM 64.0 °F - 53.1 °F 67% 30.04 in 10.0 mi Calm Calm - N/A   Scattered Clouds
10:56 AM 66.9 °F - 54.0 °F 63% 30.03 in 10.0 mi Variable 3.5 mph - N/A   Clear
11:56 AM 73.0 °F - 55.0 °F 53% 30.01 in 10.0 mi NNW 8.1 mph - N/A   Clear
12:56 PM 75.9 °F - 55.9 °F 50% 29.99 in 10.0 mi NW 8.1 mph - N/A   Clear
1:56 PM 79.0 °F - 55.9 °F 45% 29.98 in 10.0 mi North 9.2 mph 17.3 mph N/A   Clear
2:56 PM 82.0 °F 81.6 °F 55.9 °F 41% 29.95 in 10.0 mi NNE 11.5 mph - N/A   Clear
3:56 PM 84.0 °F 83.0 °F 55.9 °F 38% 29.94 in 10.0 mi North 9.2 mph - N/A   Clear
4:56 PM 84.0 °F 83.3 °F 57.0 °F 40% 29.91 in 10.0 mi NNE 10.4 mph - N/A   Clear
5:56 PM 84.0 °F 83.5 °F 57.9 °F 41% 29.90 in 10.0 mi NNE 11.5 mph - N/A   Clear
6:56 PM 81.0 °F 81.1 °F 57.9 °F 45% 29.89 in 10.0 mi ENE 8.1 mph - N/A   Clear
7:56 PM 79.0 °F - 60.1 °F 52% 29.89 in 10.0 mi NNW 9.2 mph - N/A   Clear
8:56 PM 73.9 °F - 59.0 °F 59% 29.91 in 10.0 mi NNW 4.6 mph - N/A   Clear
9:56 PM 73.0 °F - 59.0 °F 61% 29.91 in 10.0 mi Calm Calm - N/A   Clear
10:56 PM 73.0 °F - 59.0 °F 61% 29.92 in 10.0 mi WNW 5.8 mph - N/A   Clear
11:56 PM 71.1 °F - 57.9 °F 63% 29.93 in 10.0 mi NNW 3.5 mph - N/A   Clear